Location: Bessat
(45.8735°N, 1.9924°E)
Time: 23:05:10
(UTC+00:00)

Cosmos 1707 Rocket - Pass Details

Date: 11 May 2021
Orbit: 605 x 631 km, 82.5° (Epoch: 24 June)

Event Time Altitude Azimuth Distance (km) Brightness Sun altitude
Exits shadow 22:32:58 70° 243° (WSW) 660 3.5 -23.8°
Maximum altitude 22:33:17 74° 280° (W) 647 3.6 -23.8°
Drops below altitude 10° 22:37:42 10° 5° (N) 1,998 7.1 -24.0°
Sets 22:39:58 0° 8° (N) 2,914 8.1 -24.1°
